Location: Risskov
(56.1972°N, 10.2480°E)
Time: 23:47:48
(UTC+00:00)

Cosmos 2369 Rocket - Pass Details

Date: 05 July 2020
Orbit: 829 x 852 km, 71.0° (Epoch: 14 August)

Event Time Altitude Azimuth Distance (km) Brightness Sun altitude
Rises 23:35:29 0° 324° (NW) 3,385 6.2 -11.1°
Reaches altitude 10° 23:37:56 10° 322° (NW) 2,448 5.4 -11.1°
Maximum altitude 23:43:28 63° 242° (WSW) 926 2.3 -11.0°
Enters shadow 23:48:36 12° 163° (SSE) 2,298 3.9 -11.0°
